Starlink 33534

operational
NORAD ID: 63499 Int'l Des: 2025-071 Owner: SPXS Country: US Constellation: starlink
LEOCIRCULAR

Starlink 33534について

説明を読み込み中...

リアルタイム位置

3D地球を読み込み中...

次回通過

高度履歴

Altitude vs Time

uPlot chart will show altitude changes over time

軌道要素

1 63499U 25071G 25303.48329864 .00049944 00000-0 16858-2 0 9993
2 63499 53.1604 24.7977 0002504 54.2383 305.8850 15.30224019 32814
Epoch: Oct 30, 2025 • Age: 26 hours

現在のステータス

高度 476.0 km
速度 7.63 km/s
衛星直下点 26.57°N, 61.87°W
打ち上げ日 Apr 7, 2025
運用期間 0.5 years
タイプ internet

技術仕様

分類 Payload
質量 575.00 kg
乾燥質量 530.00 kg
総質量 575.00 kg
長さ 0.30 m
直径 4.10 m
スパン 29.00 m
形状 Box + pan
製造者 SPXS
バスタイプ Starlink V2MO
フェーズステータス In Orbit
所有者/国 SPXS/US

大規模コンステレーション

Loading constellations...